Location: Dumpton Point
(51.3500°N, 1.4433°E)
Time: 18:39:12
(UTC+00:00)

Sich 1 - Pass Details

Date: 09 April 2020
Orbit: 593 x 626 km, 82.5° (Epoch: 24 May)

Event Time Altitude Azimuth Distance (km) Brightness Sun altitude
Rises 22:09:41 0° 355° (N) 2,927 7.5 -26.4°
Reaches altitude 10° 22:12:07 10° 5° (N) 2,014 6.4 -26.6°
Enters shadow 22:15:14 31° 44° (NE) 1,110 4.4 -26.8°
